EW6338 Weather Reports


Display with metric or nautical units.
time (UTC)temp
F
wind
direction
speed
MPH
gust
MPH
rain 1hr
in
rain 24hr
in
rain mn
in
humidity
%
barometer
mb
20260508121530 48 356 0.0 2.0 0.00 0.00 0.00 60 1008.5
20260508120027 47 234 0.0 4.0 0.00 0.00 0.00 63 1008.5
20260508114523 46 247 1.0 5.0 0.00 0.00 0.00 65 1008.5
20260508113023 44 207 0.0 2.0 0.00 0.00 0.00 68 1008.5
20260508111522 43 295 0.0 2.0 0.00 0.00 0.00 72 1008.4
20260508110020 42 266 0.0 2.0 0.00 0.00 0.00 74 1008.3
20260508104532 40 264 0.0 1.0 0.00 0.00 0.00 77 1008.2
20260508103017 40 262 0.0 0.0 0.00 0.00 0.00 77 1008.0
20260508101515 40 262 0.0 2.0 0.00 0.00 0.00 78 1007.9
20260508100015 39 271 0.0 1.0 0.00 0.00 0.00 81 1007.7
20260508094512 39 270 0.0 1.0 0.00 0.00 0.00 79 1007.6
20260508093010 40 270 0.0 2.0 0.00 0.00 0.00 76 1007.6
20260508091510 40 290 0.0 2.0 0.00 0.00 0.00 76 1007.5
20260508090015 39 251 0.0 3.0 0.00 0.00 0.00 78 1007.4
20260508084507 38 103 0.0 0.0 0.00 0.00 0.00 79 1007.2
20260508083005 38 102 0.0 0.0 0.00 0.00 0.00 79 1007.1
20260508081504 37 103 0.0 0.0 0.00 0.00 0.00 78 1006.8
20260508080002 37 102 0.0 0.0 0.00 0.00 0.00 77 1006.5
20260508074600 38 103 0.0 0.0 0.00 0.00 0.00 77 1006.3
20260508073058 39 103 0.0 0.0 0.00 0.00 0.00 77 1006.0
20260508071601 40 103 0.0 0.0 0.00 0.00 0.00 74 1006.1
20260508070139 40 103 0.0 1.0 0.00 0.00 0.00 75 1006.2
20260508064607 40 103 0.0 0.0 0.00 0.00 0.00 72 1006.1
20260508063051 41 102 0.0 0.0 0.00 0.00 0.00 69 1006.0
20260508061554 42 102 0.0 0.0 0.00 0.00 0.00 68 1006.0
20260508060047 41 102 0.0 0.0 0.00 0.00 0.00 71 1006.2
20260508054546 40 103 0.0 0.0 0.00 0.00 0.00 76 1006.3
20260508053052 41 102 0.0 0.0 0.00 0.00 0.00 77 1006.4
20260508051542 41 103 0.0 0.0 0.00 0.00 0.00 75 1006.6
20260508050041 42 102 0.0 0.0 0.00 0.00 0.00 74 1006.7
20260508044533 43 248 0.0 0.0 0.00 0.00 0.00 68 1006.9
20260508043049 44 248 0.0 0.0 0.00 0.00 0.00 66 1006.9
20260508041530 45 248 0.0 1.0 0.00 0.00 0.00 66 1006.8
20260508040026 46 232 0.0 0.0 0.00 0.00 0.00 64 1006.8
20260508034524 46 275 0.0 1.0 0.00 0.00 0.00 64 1006.7
20260508033021 47 20 0.0 0.0 0.00 0.00 0.00 62 1006.8
20260508031523 46 41 0.0 1.0 0.00 0.00 0.00 63 1006.6
20260508030120 47 260 0.0 1.0 0.00 0.00 0.00 62 1006.5
20260508024519 47 166 0.0 0.0 0.00 0.00 0.00 60 1006.4
20260508023018 48 197 0.0 1.0 0.00 0.00 0.00 58 1006.5
20260508021515 48 262 0.0 0.0 0.00 0.00 0.00 57 1006.4
20260508020015 49 262 0.0 2.0 0.00 0.00 0.00 55 1006.5
20260508014515 49 237 0.0 0.0 0.00 0.00 0.00 54 1006.2
20260508013013 50 238 0.0 1.0 0.00 0.00 0.00 53 1005.8
20260508011513 50 290 0.0 2.0 0.00 0.00 0.00 51 1005.8
20260508010022 52 1 0.0 0.0 0.00 0.00 0.00 50 1005.5
20260508004513 53 15 0.0 1.0 0.00 0.00 0.00 48 1005.4
20260508003012 54 21 0.0 1.0 0.00 0.00 0.00 47 1005.2
20260508001512 54 12 0.0 2.0 0.00 0.00 0.00 45 1005.0
20260508000011 55 127 0.0 1.0 0.00 0.00 0.00 44 1004.8
20260507234511 56 14 0.0 1.0 0.00 0.03 0.00 41 1004.7
20260507233010 57 285 0.0 5.0 0.00 0.03 0.00 39 1004.6
20260507231516 58 11 0.0 4.0 0.00 0.03 0.00 39 1004.4
20260507230009 58 129 0.0 5.0 0.00 0.03 0.00 39 1004.4
20260507224508 59 52 0.0 4.0 0.00 0.08 0.00 37 1004.3
20260507223008 60 152 0.0 5.0 0.00 0.08 0.00 36 1004.1
20260507221508 61 39 1.0 8.0 0.00 0.08 0.00 36 1004.0
20260507220007 62 252 0.0 4.0 0.00 0.08 0.00 36 1003.8
20260507214507 62 65 1.0 7.0 0.00 0.12 0.00 35 1003.8
20260507213010 63 267 2.0 9.0 0.00 0.12 0.00 34 1003.7
20260507211506 63 325 0.0 7.0 0.00 0.12 0.00 36 1003.7
20260507210007 63 105 3.0 10.0 0.00 0.12 0.00 35 1003.5
20260507204508 63 347 1.0 9.0 0.00 0.20 0.00 35 1003.7
20260507203002 65 15 2.0 7.0 0.00 0.20 0.00 34 1003.4
20260507201501 64 41 1.0 8.0 0.00 0.20 0.00 34 1003.6
20260507194609 63 79 1.0 13.0 0.00 0.24 0.00 35 1003.8
20260507193057 64 243 3.0 10.0 0.00 0.24 0.00 32 1003.8
20260507191615 64 340 1.0 5.0 0.00 0.24 0.00 37 1003.9
20260507190056 64 217 3.0 10.0 0.00 0.24 0.00 35 1004.1
20260507184602 64 251 2.0 9.0 0.00 0.24 0.00 35 1004.2
20260507183052 64 239 3.0 10.0 0.00 0.24 0.00 36 1004.2
20260507181552 64 292 1.0 6.0 0.00 0.24 0.00 36 1004.4
20260507180050 64 229 3.0 11.0 0.00 0.24 0.00 34 1004.5
20260507174548 64 55 0.0 9.0 0.00 0.24 0.00 43 1004.3
20260507173045 63 289 3.0 9.0 0.00 0.24 0.00 40 1004.4
20260507171549 62 219 1.0 10.0 0.00 0.24 0.00 41 1004.6
20260507170042 62 286 2.0 10.0 0.00 0.24 0.00 46 1004.6
20260507164555 61 202 1.0 9.0 0.00 0.24 0.00 50 1004.8
20260507163039 60 250 0.0 11.0 0.00 0.24 0.00 57 1005.0
20260507161539 60 36 1.0 9.0 0.00 0.24 0.00 57 1005.1
20260507160037 59 321 1.0 7.0 0.00 0.24 0.00 60 1005.2
20260507154537 61 230 1.0 5.0 0.00 0.24 0.00 58 1005.4
20260507153038 60 52 1.0 5.0 0.00 0.24 0.00 57 1005.6
20260507151537 60 94 2.0 6.0 0.00 0.24 0.00 55 1005.6
20260507150035 61 234 0.0 7.0 0.00 0.24 0.00 61 1005.8
20260507144533 59 294 2.0 6.0 0.00 0.24 0.00 55 1006.0
20260507143053 59 236 1.0 7.0 0.00 0.24 0.00 59 1006.0
20260507141538 58 307 1.0 7.0 0.00 0.24 0.00 58 1005.9
20260507140026 57 252 1.0 4.0 0.00 0.24 0.00 61 1005.9
20260507134524 56 272 0.0 3.0 0.00 0.24 0.00 67 1005.8
20260507133023 55 34 0.0 5.0 0.00 0.24 0.00 66 1006.1
20260507131522 54 245 0.0 6.0 0.00 0.24 0.00 69 1006.3
20260507130036 54 75 0.0 4.0 0.00 0.24 0.00 72 1006.4
20260507124519 53 48 0.0 3.0 0.00 0.24 0.00 73 1006.4
20260507123018 51 275 0.0 4.0 0.00 0.24 0.00 77 1006.5